Location: Unspecified
(0.0000°N, 0.0000°E)
Time: 15:36:09
(UTC+00:00)

Envisat - Pass Details

Date: 12 December 2018
Orbit: 764 x 766 km, 98.2° (Epoch: 13 December)

Event Time Altitude Azimuth Distance (km) Brightness Sun altitude
Rises 20:15:28 0° 199° (SSW) 3,230 6.8 -32.2°
Reaches altitude 10° 20:18:34 10° 218° (SW) 2,301 6.2 -32.9°
Maximum altitude 20:21:44 17° 257° (WSW) 1,868 5.6 -33.6°
Drops below altitude 10° 20:24:55 10° 297° (WNW) 2,295 5.8 -34.3°
Sets 20:28:00 0° 317° (NW) 3,217 6.4 -35.0°
